Location: Podia
(1.5569°N, 32.3469°E)
Time: 15:10:17
(UTC+00:00)

CZ-4 R/B - Pass Details

Date: 01 June 2020
Orbit: 531 x 599 km, 97.8° (Epoch: 04 July)

Event Time Altitude Azimuth Distance (km) Brightness Sun altitude
Exits shadow 16:25:55 - 158° (SSE) 2,739 4.5 -8.0°
Reaches altitude 10° 16:27:59 10° 152° (SSE) 1,907 3.6 -8.5°
Maximum altitude 16:31:58 47° 78° (ENE) 786 1.8 -9.4°
Drops below altitude 10° 16:35:59 10° 4° (N) 1,923 4.3 -10.4°
Sets 16:38:12 0° 359° (N) 2,825 5.3 -10.9°
